LDZALDRI

Guest
Details From LDZA - Zagreb
To LDRI - RIJEKA
Flight Number -
Tags generated
Created
Modified
Stats Distance 71 nm / 131 km
Max Altitude 8,500 ft / 2,591 m
Waypoints 3
Social Downloads 0
Likes 0
Share VATSIM

Download

Looking for another format? Having issues loading an existing format? Contact us
Advertisement - Login to hide

Notes

Basic altitude profile: - Ascent Rate: 2500ft/min - Ascent Speed: 250kts - Cruise Altitude: 10000ft - Cruise Speed: 420kts - Descent Rate: 1500ft/min - Descent Speed: 250kts Options: - Use NATs: yes - Use PACOTS: yes - Use low airways: yes - Use high airways: yes

Route

LDZA KERLO LDRI

ID Type Via Altitude Latitude Longitude Leg Dist Tot Dist Heading (true) Name
O LDZA APT - 0 ft / 0 m 45.74189˚ 16.06720˚ - 0 nm - Zagreb
KERLO FIX - 8,500 ft / 2,591 m 45.53528˚ 15.57861˚ 23 nm 23 nm 239° / 239° -
O LDRI APT - 0 ft / 0 m 45.21663˚ 14.57081˚ 46 nm 70 nm 246° / 245° RIJEKA

Altitude Profile

Advertisement - Login to hide

LDZA

Details ICAO LDZA (ZAG)
Name Zagreb
Region Croatia
Timezone Europe/Zagreb (UTC+2.0)
Stats Elevation 353 ft / 108 m (AMSL)
Location 45.741890° 16.067200°
Runways 1
Magnetic Variation 4.008° E

METAR

LDZA 231500Z 07005KT 020V120 9999 FEW033 25/15 Q1015 NOSIG

Decode

TAF

TAF LDZA 231125Z 2312/2412 VRB02KT 9999 SCT035 TX24/2314Z TN15/2404Z PROB30 TEMPO 2313/2319 TSRA SCT025CB BKN030 PROB30 TEMPO 2321/2406 SHRA FEW030TCU BKN035 BECMG 2400/2402 05006KT PROB30 TEMPO 2410/2412 TSRA FEW030CB SCT035

Decode

Departure Runways

ID Width Length Bearing (true) Bearing (mag) Surface Threshold Offset Overrun Length
05 148 ft / 45 m 10,659 ft / 3,249 m 46.69° 42.68° Asphalt 0 ft / 0 m 195 ft / 59 m
23 148 ft / 45 m 10,659 ft / 3,249 m 226.71° 222.70° Asphalt 0 ft / 0 m 195 ft / 59 m

LDRI

Details ICAO LDRI (RJK)
Name RIJEKA
Region Croatia
Timezone Europe/Zagreb (UTC+2.0)
Stats Elevation 278 ft / 85 m (AMSL)
Location 45.216635° 14.570813°
Runways 1
Magnetic Variation 3.672° E

METAR

LDRI 231500Z 24007KT 210V270 CAVOK 24/16 Q1014

Decode

TAF

TAF LDRI 231125Z 2312/2412 VRB02KT 9999 SCT045 TX22/2313Z TN18/2404Z PROB30 TEMPO 2312/2318 VRB15KT 4000 TSRA SCT030CB BKN040

Decode

Destination Runways

ID Width Length Bearing (true) Bearing (mag) Surface Threshold Offset Overrun Length
14 148 ft / 45 m 8,161 ft / 2,488 m 143.77° 140.10° Asphalt 0 ft / 0 m 0 ft / 0 m
32 148 ft / 45 m 8,161 ft / 2,488 m 323.78° 320.11° Asphalt 0 ft / 0 m 0 ft / 0 m

Approach Navaids

Runway Type Ident Frequency Range Bearing (true) Bearing (mag) Slope Elevation
14 Localiser IKR 108.50 MHz 25 nm / 46 km 143.68° 140.01° - 200 ft / 61 m (AMSL)
14 Glidescope IKR 108.50 MHz 25 nm / 46 km 143.68° 140.01° 3.00° 259 ft / 79 m (AMSL)

Popular Alternatives